Regional Weather Roundup
Issued by NWS Kansas City/Pleasant Hill, MO

Home | Current Version | Previous Version | Graphics & Text | Print | Product List | Glossary Off
Versions: 1 2 3 4 5 6 7 8 9 10 11 12 13 14 15 16 17 18 19 20 21 22 23 24 25 26 27 28 29 30 31 32 33 34 35 36 37 38 39 40 41 42 43 44 45 46 47 48 49 50

000
ASUS43 KEAX 201710
RWREAX

WEATHER ROUNDUP FOR EASTERN KANSAS AND NORTHWEST MISSOURI
NATIONAL WEATHER SERVICE KANSAS CITY/PLEASANT HILL MO
1100 AM CST THU NOV 20 2014

KSZ040-057-103>105-MOZ028-029-037-043-201800-
...KANSAS CITY METROPOLITAN AREA...

CITY           SKY/WX    TMP DP  RH WIND       PRES   REMARKS
K.C. INTL      MOSUNNY   32  18  56 VRB5      30.26S WCI  27
K.C. DOWNTOWN  SUNNY     35  17  47 N7        30.27S WCI  29
LEES SUMMIT    SUNNY     33  16  49 NE9       30.26S WCI  25
OLATHE - IXD   SUNNY     34  17  50 NE8       30.26S HAZE    WCI  27
OLATHE - OJC   SUNNY     34  17  50 NE7       30.25S WCI  28
LAWRENCE       SUNNY     33  17  51 NE8       30.27F WCI  26

$$

MOZ001>008-011>017-020>025-030>033-038>040-044>046-053-054-201800-
...NORTHERN AND CENTRAL MISSOURI...

CITY           SKY/WX    TMP DP  RH WIND       PRES   REMARKS
ST. JOSEPH     SUNNY     30  16  56 NE7       30.28R WCI  23
MOSBY          SUNNY     32  18  55 NW8       30.27S WCI  25
WARRENSBURG    SUNNY     32  19  59 CALM      30.27S
WHITEMAN AFB   SUNNY     33  17  52 NW3       30.26S
CLINTON        SUNNY     36  23  60 CALM      30.27F
SEDALIA        SUNNY     35  18  49 N6        30.27S WCI  30
WARSAW         NOT AVBL
MARSHALL       SUNNY     34  21  60 W5        30.27F WCI  30
CHILLICOTHE      N/A     30  16  56 VRB7      30.28R WCI  23
MOBERLY        SUNNY     32  16  51 W9        30.25F WCI  24
KIRKSVILLE     SUNNY     30  15  53 NW9       30.23F WCI  22

$$

MOZ041-047>049-056>058-063>065-088>090-097-201800-
...EASTERN AND SOUTHERN MISSOURI...

CITY           SKY/WX    TMP DP  RH WIND       PRES   REMARKS
ST. LOUIS INTL MOSUNNY   34  17  50 NW5       30.26F WCI  30
SPIRIT OF STL  SUNNY     32  17  54 VRB7      30.26F WCI  26
COLUMBIA       SUNNY     32  17  54 NW10      30.26S WCI  24
JEFFERSON CITY SUNNY     32  18  56 N6        30.28F WCI  26
MEXICO         SUNNY     32  23  69 NW9       30.24F WCI  24
ROLLA          SUNNY     33  18  53 W7        30.23S WCI  27
LEBANON        SUNNY     41  19  42 N3        30.24S
OSAGE BEACH    SUNNY     37  19  48 W5        30.26S WCI  34
SPRINGFIELD    SUNNY     42  19  39 NE7       30.22F
BRANSON        MOSUNNY   45  16  31 E10       30.23F
NEVADA         SUNNY     39  23  52 NE7       30.26S WCI  34
JOPLIN         SUNNY     42  22  44 E7        30.21F
WEST PLAINS    SUNNY     42  18  37 VRB3      30.24S

$$

IAZ060-094-KSZ022-034>040-054-083-096-NEZ052-066-093-201800-
...KANSAS...SOUTHEAST NEBRASKA AND IOWA...

CITY           SKY/WX    TMP DP  RH WIND       PRES   REMARKS
TOPEKA         SUNNY     35  17  47 NE8       30.26F WCI  29
MANHATTAN      SUNNY     34  18  52 E9        30.24S WCI  27
EMPORIA        SUNNY     36  19  50 E9        30.22F WCI  29
CHANUTE        SUNNY     40  22  48 E9        30.22F WCI  34
WICHITA        MOSUNNY   42  21  43 SE9       30.17F
OMAHA          CLOUDY    27  16  63 N5        30.26R WCI  22
LINCOLN        SUNNY     28  17  63 CALM      30.25F
FALLS CITY     SUNNY     28  17  63 NW6       30.26R WCI  22
LAMONI         MOSUNNY   26  15  63 NW12      30.22S WCI  16
DES MOINES     MOSUNNY   26  12  55 NW15      30.22S WCI  14

$$




USA.gov is the U.S. government's official web portal to all federal, state and local government web resources and services.